TimeCDT,TemperatureF,Dew PointF,Humidity,Sea Level PressureIn,VisibilityMPH,Wind Direction,Wind SpeedMPH,Gust SpeedMPH,PrecipitationIn,Events,Conditions,WindDirDegrees,DateUTC
12:05 AM,66.2,66.2,100,29.89,10.0,East,3.5,-,N/A,,Scattered Clouds,80,2013-05-01 05:05:00
12:53 AM,66.9,66.9,100,29.88,10.0,Calm,Calm,-,N/A,,Clear,0,2013-05-01 05:53:00
1:53 AM,66.9,66.0,97,29.85,10.0,Calm,Calm,-,N/A,,Partly Cloudy,0,2013-05-01 06:53:00
2:40 AM,66.2,66.2,100,29.83,8.0,North,3.5,-,N/A,,Mostly Cloudy,10,2013-05-01 07:40:00
2:53 AM,66.9,66.0,97,29.83,7.0,NE,3.5,-,N/A,,Overcast,40,2013-05-01 07:53:00
3:18 AM,66.2,66.2,100,29.83,2.5,ENE,3.5,-,N/A,,Overcast,60,2013-05-01 08:18:00
3:28 AM,66.2,66.2,100,29.83,1.0,NE,4.6,-,N/A,,Overcast,50,2013-05-01 08:28:00
3:53 AM,66.0,66.0,100,29.84,1.0,ENE,3.5,-,N/A,,Mist,60,2013-05-01 08:53:00
4:53 AM,66.9,66.9,100,29.85,1.2,ENE,3.5,-,N/A,,Overcast,60,2013-05-01 09:53:00
5:23 AM,66.2,66.2,100,29.86,0.8,Calm,Calm,-,N/A,,Mist,0,2013-05-01 10:23:00
5:43 AM,66.2,66.2,100,29.87,1.0,Calm,Calm,-,N/A,,Mist,0,2013-05-01 10:43:00
5:53 AM,66.9,66.9,100,29.88,1.2,Calm,Calm,-,N/A,,Overcast,0,2013-05-01 10:53:00
6:38 AM,66.2,66.2,100,29.88,3.0,Calm,Calm,-,N/A,,Overcast,0,2013-05-01 11:38:00
6:53 AM,68.0,68.0,100,29.88,3.0,Calm,Calm,-,N/A,,Overcast,0,2013-05-01 11:53:00
7:53 AM,70.0,69.1,97,29.89,6.0,Calm,Calm,-,N/A,,Overcast,0,2013-05-01 12:53:00
8:51 AM,73.4,69.8,88,29.89,10.0,Variable,4.6,-,N/A,,Overcast,0,2013-05-01 13:51:00
8:53 AM,73.0,70.0,90,29.90,10.0,Variable,6.9,-,N/A,,Overcast,0,2013-05-01 13:53:00
9:15 AM,71.6,69.8,94,29.89,10.0,Calm,Calm,-,N/A,,Overcast,0,2013-05-01 14:15:00
9:28 AM,73.4,69.8,88,29.90,10.0,Calm,Calm,-,N/A,,Overcast,0,2013-05-01 14:28:00
9:53 AM,75.0,70.0,84,29.90,10.0,SE,5.8,-,N/A,,Overcast,140,2013-05-01 14:53:00
10:36 AM,78.8,69.8,74,29.90,10.0,SE,12.7,25.3,0.01,,Mostly Cloudy,140,2013-05-01 15:36:00
11:48 AM,78.8,69.8,74,29.89,10.0,SE,12.7,21.9,N/A,Thunderstorm,Mostly Cloudy,140,2013-05-01 16:48:00
11:53 AM,78.1,69.1,74,29.89,10.0,SSE,11.5,21.9,N/A,Thunderstorm,Mostly Cloudy,150,2013-05-01 16:53:00
12:03 PM,77.0,68.0,74,29.88,10.0,SE,11.5,21.9,N/A,,Scattered Clouds,140,2013-05-01 17:03:00
12:28 PM,77.0,69.8,78,29.87,10.0,SSE,12.7,-,N/A,,Mostly Cloudy,160,2013-05-01 17:28:00
12:41 PM,77.0,69.8,78,29.87,10.0,SSE,9.2,18.4,N/A,,Scattered Clouds,150,2013-05-01 17:41:00
12:53 PM,77.0,70.0,79,29.87,10.0,South,12.7,17.3,N/A,,Scattered Clouds,170,2013-05-01 17:53:00
1:53 PM,77.0,70.0,79,29.84,10.0,SSE,9.2,-,N/A,,Mostly Cloudy,150,2013-05-01 18:53:00
2:30 PM,77.0,69.8,78,29.85,10.0,South,6.9,-,N/A,,Overcast,170,2013-05-01 19:30:00
2:42 PM,77.0,69.8,78,29.85,10.0,South,5.8,-,N/A,,Overcast,170,2013-05-01 19:42:00
2:51 PM,78.8,71.6,78,29.85,10.0,SW,4.6,-,N/A,Thunderstorm,Overcast,220,2013-05-01 19:51:00
2:53 PM,78.1,70.0,76,29.85,10.0,SW,6.9,-,N/A,Thunderstorm,Overcast,230,2013-05-01 19:53:00
3:08 PM,78.8,69.8,74,29.84,10.0,Variable,4.6,-,N/A,Thunderstorm,Overcast,0,2013-05-01 20:08:00
3:19 PM,77.0,69.8,78,29.84,7.0,South,11.5,-,0.01,Rain-Thunderstorm,Light Rain,180,2013-05-01 20:19:00
3:42 PM,71.6,66.2,83,29.84,2.0,South,6.9,-,0.11,Rain-Thunderstorm,Heavy Thunderstorms and Rain,180,2013-05-01 20:42:00
3:53 PM,70.0,66.0,87,29.85,5.0,ESE,8.1,-,0.13,Rain-Thunderstorm,Light Thunderstorms and Rain,120,2013-05-01 20:53:00
4:53 PM,69.1,66.9,93,29.86,6.0,SSE,3.5,-,0.05,Rain-Thunderstorm,Light Rain,150,2013-05-01 21:53:00
5:35 PM,68.0,66.2,94,29.86,9.0,NE,5.8,-,0.01,Rain-Thunderstorm,Light Thunderstorms and Rain,40,2013-05-01 22:35:00
5:43 PM,68.0,68.0,100,29.86,8.0,NNE,8.1,-,0.02,Rain-Thunderstorm,Light Thunderstorms and Rain,30,2013-05-01 22:43:00
5:53 PM,68.0,68.0,100,29.86,6.0,NNE,10.4,-,0.04,Rain-Thunderstorm,Thunderstorms and Rain,30,2013-05-01 22:53:00
6:00 PM,68.0,68.0,100,29.85,7.0,NNE,9.2,-,0.01,Rain,Light Rain,30,2013-05-01 23:00:00
6:07 PM,68.0,68.0,100,29.85,10.0,NNE,11.5,-,0.01,Rain,Light Rain,30,2013-05-01 23:07:00
6:14 PM,68.0,66.2,94,29.86,10.0,NE,9.2,-,0.01,Rain,Light Rain,40,2013-05-01 23:14:00
6:28 PM,68.0,66.2,94,29.86,10.0,NE,8.1,-,0.01,,Scattered Clouds,50,2013-05-01 23:28:00
6:53 PM,68.0,66.0,93,29.87,10.0,NE,8.1,-,0.01,,Mostly Cloudy,40,2013-05-01 23:53:00
7:53 PM,66.9,66.0,97,29.88,10.0,NNE,3.5,-,N/A,,Clear,20,2013-05-02 00:53:00
8:53 PM,66.0,64.9,96,29.88,10.0,Calm,Calm,-,N/A,,Scattered Clouds,0,2013-05-02 01:53:00
9:00 PM,66.2,64.4,94,29.88,10.0,NNE,3.5,-,N/A,,Mostly Cloudy,20,2013-05-02 02:00:00
9:53 PM,66.9,64.9,93,29.89,10.0,Calm,Calm,-,N/A,,Overcast,0,2013-05-02 02:53:00
10:23 PM,66.2,64.4,94,29.89,10.0,NNE,3.5,-,N/A,,Overcast,20,2013-05-02 03:23:00
10:53 PM,66.0,64.9,96,29.89,10.0,NE,3.5,-,N/A,,Overcast,40,2013-05-02 03:53:00
11:53 PM,66.0,64.9,96,29.88,10.0,Calm,Calm,-,N/A,,Overcast,0,2013-05-02 04:53:00